Date String (YYYY-MM-DD hh:mm:ss) UTC,Instrument flags,Ambient pressure (hPa),Sample flow (lpm),Bypass flow (lpm),Sample temperature (°C),Ambient temperature (°C),ASC tube jacket temperature (°C),LED temperature (°C),Box temperature (°C),Sample RH (%),Span deviation,Mass concentration (μg/m³),Mass concentration (μg/m³),Mass concentration (μg/m³)
DateTimeUTC,F1_M11,P_M11,Q1_M11,Q2_M11,T1_M11,T2_M11,T3_M11,T4_M11,T5_M11,U1_M11,ZSPAN_M11,X0_M11,X2_M11,X1_M11
2022-02-28 02:00:00,,0830.5,5.00,0.00,27.9,27.2,00.0,37.1,29.6,08.7,0002.5,0016.11,0011.75,0011.17
2022-02-28 02:01:00,,0830.5,5.00,0.00,27.9,27.1,00.0,37.0,29.6,08.7,0002.6,0016.73,0011.76,0011.13
2022-02-28 02:02:00,,0830.5,5.00,0.00,27.9,27.1,00.0,37.0,29.6,08.7,0002.1,0016.82,0011.73,0011.04
2022-02-28 02:03:00,,0830.5,5.00,0.00,27.9,27.1,00.0,37.0,29.6,08.7,0002.4,0016.79,0011.73,0011.02
2022-02-28 02:04:00,,0830.5,5.01,0.00,27.9,27.1,00.0,37.0,29.6,08.7,0002.2,0016.79,0011.71,0011.04
2022-02-28 02:05:00,,0830.5,5.00,0.00,27.8,27.1,00.0,37.0,29.5,08.8,0002.2,0017.55,0011.71,0011.04
2022-02-28 02:06:00,,0830.5,5.00,0.00,27.8,27.0,00.0,37.0,29.5,08.8,0002.6,0017.84,0011.66,0011.01
2022-02-28 02:07:00,,0830.5,5.01,0.00,27.8,27.0,00.0,37.0,29.5,09.0,0003.0,0017.45,0011.59,0010.93
2022-02-28 02:08:00,,0830.5,5.01,0.00,27.8,27.0,00.0,37.0,29.5,09.0,0002.8,0017.90,0011.51,0010.84
2022-02-28 02:09:00,,0830.6,5.00,0.00,27.8,27.0,00.0,36.9,29.5,09.0,0002.8,0017.93,0011.37,0010.73
2022-02-28 02:10:00,,0830.6,4.99,0.00,27.8,27.0,00.0,36.9,29.5,09.0,0003.0,0018.86,0011.34,0010.67
2022-02-28 02:11:00,,0830.6,5.00,0.00,27.8,27.0,00.0,36.9,29.5,08.9,0002.7,0018.76,0011.37,0010.66
2022-02-28 02:12:00,,0830.6,5.00,0.00,27.8,27.0,00.0,36.9,29.5,08.8,0002.6,0018.84,0011.40,0010.68
2022-02-28 02:13:00,,0830.7,5.00,0.00,27.8,26.9,00.0,36.9,29.5,08.7,0002.9,0018.79,0011.45,0010.75
2022-02-28 02:14:00,,0830.6,5.00,0.00,27.7,26.9,00.0,36.9,29.5,08.5,0002.9,0018.72,0011.46,0010.78
2022-02-28 02:15:00,,0830.6,5.00,0.00,27.7,26.9,00.0,36.9,29.5,08.7,0002.6,0018.73,0011.48,0010.78
2022-02-28 02:16:00,,0830.6,5.01,0.00,27.7,26.9,00.0,36.8,29.5,08.8,0002.3,0018.01,0011.49,0010.78
2022-02-28 02:17:00,,0830.5,5.00,0.00,27.7,26.9,00.0,36.8,29.5,08.9,0001.6,0017.60,0011.51,0010.79
2022-02-28 02:18:00,,0830.6,5.01,0.00,27.7,27.0,00.0,36.8,29.5,08.7,0002.2,0017.69,0011.58,0010.84
2022-02-28 02:19:00,,0830.6,5.00,0.00,27.7,27.0,00.0,36.8,29.5,08.4,0002.6,0017.70,0011.66,0010.92
2022-02-28 02:20:00,,0830.7,5.00,0.00,27.7,26.9,00.0,36.8,29.4,08.5,0002.9,0017.68,0011.78,0010.99
2022-02-28 02:21:00,,0830.7,5.00,0.00,27.7,26.9,00.0,36.8,29.4,09.0,0003.2,0016.61,0011.77,0010.99
2022-02-28 02:22:00,,0830.7,5.00,0.00,27.7,26.9,00.0,36.8,29.4,09.0,0003.4,0016.36,0011.72,0010.95
2022-02-28 02:23:00,,0830.7,5.00,0.00,27.6,26.9,00.0,36.8,29.4,08.9,0003.3,0016.23,0011.62,0010.88
2022-02-28 02:24:00,,0830.7,5.00,0.00,27.6,26.8,00.0,36.8,29.3,08.9,0003.4,0016.31,0011.56,0010.83
2022-02-28 02:25:00,,0830.8,5.00,0.00,27.6,26.8,00.0,36.8,29.3,08.8,0003.7,0016.40,0011.58,0010.82
2022-02-28 02:26:00,,0830.7,5.00,0.00,27.6,26.8,00.0,36.7,29.3,08.6,0003.9,0016.35,0011.60,0010.85
2022-02-28 02:27:00,,0830.7,5.00,0.00,27.6,26.8,00.0,36.7,29.3,08.4,0004.3,0016.43,0011.68,0010.92
2022-02-28 02:28:00,,0830.7,4.99,0.00,27.6,26.7,00.0,36.7,29.3,08.3,0004.8,0016.48,0011.79,0010.99
2022-02-28 02:29:00,,0830.7,5.00,0.00,27.6,26.7,00.0,36.7,29.3,08.2,0004.3,0016.81,0011.85,0011.07
2022-02-28 02:30:00,,0830.8,5.01,0.00,27.5,26.7,00.0,36.7,29.3,08.0,0004.6,0016.48,0011.89,0011.11
2022-02-28 02:31:00,,0830.8,5.00,0.00,27.5,26.7,00.0,36.7,29.2,08.0,0004.1,0017.21,0011.90,0011.13
2022-02-28 02:32:00,,0830.8,5.00,0.00,27.5,26.7,00.0,36.6,29.2,08.8,0003.7,0017.27,0011.93,0011.18
2022-02-28 02:33:00,,0830.8,5.00,0.00,27.5,26.7,00.0,36.6,29.2,09.2,0003.2,0017.90,0012.06,0011.26
2022-02-28 02:34:00,,0830.8,5.00,0.00,27.5,26.6,00.0,36.6,29.2,09.4,0003.0,0017.82,0012.18,0011.37
2022-02-28 02:35:00,,0830.9,5.00,0.00,27.4,26.6,00.0,36.6,29.2,09.3,0003.0,0017.47,0012.28,0011.49
2022-02-28 02:36:00,,0830.9,5.00,0.00,27.4,26.6,00.0,36.6,29.1,09.2,0002.9,0017.55,0012.36,0011.57
2022-02-28 02:37:00,,0830.9,5.00,0.00,27.4,26.6,00.0,36.6,29.1,09.5,0002.8,0017.81,0012.42,0011.64
2022-02-28 02:38:00,,0831.0,5.00,0.00,27.4,26.6,00.0,36.6,29.1,09.6,0002.3,0017.84,0012.49,0011.71
2022-02-28 02:39:00,,0831.0,5.01,0.00,27.4,26.6,00.0,36.6,29.1,09.6,0002.0,0017.91,0012.56,0011.79
2022-02-28 02:40:00,,0831.0,4.98,0.00,27.4,26.6,00.0,36.5,29.1,09.6,0002.2,0017.68,0012.65,0011.88
2022-02-28 02:41:00,,0831.0,5.01,0.00,27.4,26.6,00.0,36.5,29.1,09.5,0002.0,0018.32,0012.68,0011.92
2022-02-28 02:42:00,,0831.0,5.01,0.00,27.4,26.6,00.0,36.5,29.1,09.5,0002.2,0017.66,0012.71,0011.98
2022-02-28 02:43:00,,0831.0,4.99,0.00,27.4,26.6,00.0,36.5,29.1,09.6,0003.2,0017.66,0012.83,0012.07
2022-02-28 02:44:00,,0831.0,5.00,0.00,27.4,26.6,00.0,36.5,29.1,09.7,0004.0,0017.42,0012.94,0012.19
2022-02-28 02:45:00,,0831.0,5.00,0.00,27.4,26.5,00.0,36.5,29.1,09.7,0004.3,0017.60,0013.06,0012.30
2022-02-28 02:46:00,,0831.0,5.00,0.00,27.3,26.5,00.0,36.5,29.1,09.7,0004.7,0017.93,0013.19,0012.41
2022-02-28 02:47:00,,0831.0,5.00,0.00,27.3,26.5,00.0,36.4,29.1,09.7,0004.5,0018.00,0013.31,0012.53
2022-02-28 02:48:00,,0831.0,5.01,0.00,27.3,26.5,00.0,36.4,29.0,09.6,0004.2,0018.08,0013.41,0012.64
2022-02-28 02:49:00,,0831.0,5.01,0.00,27.3,26.5,00.0,36.4,29.0,09.6,0004.1,0018.99,0013.50,0012.70
2022-02-28 02:50:00,,0831.0,5.00,0.00,27.3,26.5,00.0,36.4,29.0,09.3,0004.5,0019.32,0013.48,0012.69
2022-02-28 02:51:00,,0831.0,5.00,0.00,27.3,26.5,00.0,36.4,29.0,09.2,0004.5,0019.21,0013.35,0012.55
2022-02-28 02:52:00,,0831.0,5.00,0.00,27.3,26.4,00.0,36.4,29.0,09.0,0004.2,0018.56,0013.23,0012.42
2022-02-28 02:53:00,,0831.0,5.01,0.00,27.2,26.4,00.0,36.4,29.0,08.7,0003.9,0018.16,0013.01,0012.15
2022-02-28 02:54:00,,0831.0,5.00,0.00,27.2,26.3,00.0,36.3,29.0,08.6,0003.3,0017.90,0012.70,0011.83
2022-02-28 02:55:00,,0830.9,5.00,0.00,27.2,26.3,00.0,36.3,28.9,08.5,0002.8,0017.44,0012.28,0011.45
2022-02-28 02:56:00,,0830.9,5.00,0.00,27.2,26.3,00.0,36.3,28.9,08.5,0002.9,0017.43,0011.78,0011.02
2022-02-28 02:57:00,,0830.9,5.00,0.00,27.2,26.3,00.0,36.3,28.9,08.6,0002.2,0017.17,0011.36,0010.61
2022-02-28 02:58:00,,0831.0,5.00,0.00,27.1,26.3,00.0,36.3,28.8,08.6,0002.2,0017.14,0010.97,0010.21
2022-02-28 02:59:00,,0831.0,5.00,0.00,27.1,26.2,00.0,36.3,28.8,08.4,0002.2,0016.79,0010.51,0009.75
